Temp
81 81 80 72 60 58 55 62 68 68 68 72 77 74 69 68 66 58 72 76 78 77 79 81 82 83 83 83 82 82 82 83 83 83 83 83 83 82 82 83 83 83 84 84 83 83 83 83 83
80 80 76 69 56 52 55 67 64 68 72 76 76 74 70 66 73 71 72 78 79 78 77 79 82 83 83 82 82 82 83 83 83 83 83 83 83 83 84 83 83 83 83 83 82 83 83 83 83
81 82 69 63 56 54 56 67 68 73 77 77 74 77 73 68 72 73 76 78 78 76 77 78 82 83 83 82 82 82 83 83 83 83 83 83 83 83 83 82 82 83 83 84 83 83 83 83 82
78 73 70 59 58 64 67 70 73 74 77 79 76 70 76 79 75 77 79 79 77 75 77 81 83 83 83 82 82 82 83 82 83 83 83 83 83 83 83 83 83 83 83 83 83 83 83 83 82
74 66 58 59 62 69 73 76 76 72 73 75 76 68 70 77 79 78 77 79 75 75 77 80 82 83 83 82 82 82 82 83 83 83 83 83 83 83 83 83 83 83 83 83 83 83 83 83 82
64 63 58 56 62 72 74 76 77 74 75 75 72 69 68 76 75 76 78 76 77 75 76 78 82 82 83 83 83 83 83 83 83 83 83 83 83 83 83 83 83 83 83 82 82 83 83 82 82
63 62 61 62 65 69 73 78 73 72 74 74 78 66 68 73 77 78 77 77 77 77 76 76 78 81 83 83 83 83 83 83 83 83 83 83 83 83 83 83 83 83 82 82 82 82 83 82 82
70 66 64 64 65 66 74 76 77 75 74 82 81 66 64 73 78 77 76 75 75 75 75 75 75 77 77 78 83 83 83 83 83 83 83 83 83 83 83 82 82 83 83 82 83 81 81 82 82
76 63 61 65 68 69 74 72 79 82 77 79 81 75 77 78 77 74 73 73 73 74 74 74 74 74 75 76 78 82 83 83 83 83 83 82 78 79 81 81 82 83 83 83 83 82 81 82 82
70 61 68 75 75 73 77 76 77 75 74 74 74 77 77 76 75 72 71 70 71 72 73 73 74 74 74 78 76 76 77 78 77 78 77 77 76 75 79 80 82 83 83 83 83 82 81 82 77
68 68 75 79 80 81 77 77 80 73 69 73 71 72 74 74 73 73 73 72 72 74 74 74 73 74 73 74 74 74 75 74 75 75 75 75 75 75 77 75 75 77 81 79 81 79 78 76 76
69 76 79 79 80 78 76 77 76 76 76 80 77 76 75 73 73 73 73 73 73 73 74 75 74 73 73 73 74 74 73 72 72 73 73 73 73 73 73 73 74 74 75 74 74 73 74 74 74
72 76 79 83 81 78 80 75 76 76 80 80 78 77 75 74 74 76 77 76 75 73 74 75 74 73 73 73 73 73 72 73 73 73 73 72 71 71 71 71 73 73 73 73 71 71 72 72 73
77 78 80 80 79 79 76 73 77 77 80 78 76 74 75 75 75 75 75 74 74 75 75 76 75 74 73 73 72 71 70 72 72 72 72 71 71 70 70 70 70 72 72 73 72 71 71 71 72
77 71 74 74 73 73 78 72 70 76 79 76 76 76 76 76 77 76 76 75 76 76 77 75 75 75 73 73 72 71 70 71 70 70 71 72 70 70 70 71 71 71 72 72 71 71 71 70 71
70 67 64 72 75 75 77 64 72 75 75 74 76 77 77 76 77 78 78 77 77 77 75 75 78 75 73 72 72 71 71 71 71 71 71 72 71 71 71 70 70 72 71 70 69 69 68 69 69
64 59 61 69 77 73 73 67 73 74 75 72 75 76 77 77 76 78 79 79 77 77 75 73 75 74 72 72 71 71 70 70 70 71 71 72 72 73 70 72 71 71 71 70 70 69 69 70 70
59 59 61 64 73 71 68 68 72 73 74 74 74 75 75 77 78 81 78 79 78 77 75 74 74 73 71 71 70 69 69 69 69 69 70 71 72 72 72 72 71 70 70 69 69 69 70 70 70
64 62 62 67 76 70 68 71 73 72 75 74 72 73 73 77 81 80 79 78 77 75 73 73 72 72 70 70 68 67 67 68 68 70 71 71 71 72 72 72 71 70 70 70 70 70 69 68 70
66 63 64 69 75 70 66 68 71 72 73 76 74 73 74 75 75 77 76 76 75 74 73 73 73 72 71 70 71 70 67 68 68 69 70 72 72 72 72 71 70 71 70 71 70 70 68 69 69
62 62 64 66 69 68 66 63 65 71 72 74 75 75 75 74 75 74 74 74 76 75 73 74 73 72 71 72 70 68 68 68 68 68 69 71 72 72 72 72 71 71 70 70 70 70 69 68 69
54 69 72 68 63 56 64 53 60 64 67 70 72 72 75 73 74 74 74 73 76 77 76 70 69 69 70 71 69 69 67 66 68 69 71 72 73 73 73 72 72 71 70 70 70 71 70 69 67
66 70 67 65 59 55 57 55 60 59 65 67 70 71 73 75 75 74 75 75 78 77 71 68 67 68 68 71 69 68 67 68 69 70 71 71 71 73 73 72 71 71 70 70 70 70 70 69 68
72 65 61 55 53 49 54 55 55 61 66 67 69 71 73 73 73 74 74 75 75 77 70 67 65 66 69 69 69 68 67 68 69 69 68 68 70 70 71 71 70 70 70 70 70 70 70 70 69
63 55 47 47 47 48 51 53 58 66 68 68 69 71 72 73 68 68 70 72 73 74 72 67 66 64 68 70 69 69 68 70 70 68 68 67 68 68 69 70 69 70 70 72 71 70 70 69 69
59 56 48 43 43 49 53 51 60 68 67 66 69 71 70 68 68 67 70 70 71 73 73 72 70 69 70 69 70 70 70 69 68 67 67 68 68 68 69 70 70 71 72 72 72 70 70 70 69
59 55 57 47 41 46 49 56 65 67 65 64 64 66 66 66 67 68 70 71 73 71 73 72 69 69 69 69 69 68 68 68 67 68 69 68 69 69 70 70 70 71 71 70 69 68 68 68 68
63 65 54 48 43 40 47 50 54 62 62 63 62 63 65 68 68 70 71 72 68 70 72 72 70 69 69 69 68 67 67 67 67 68 68 69 69 70 69 70 70 68 68 68 68 67 67 67 66
60 54 51 51 47 45 44 50 58 60 61 61 62 64 65 67 67 68 69 67 69 69 70 70 70 69 68 68 66 66 65 66 68 68 69 69 69 69 69 68 68 67 67 67 66 66 66 66 66
62 58 54 50 47 43 46 52 61 59 61 63 64 65 66 67 68 67 67 68 68 69 67 69 69 68 68 67 66 65 65 66 67 68 69 69 69 69 69 68 67 66 66 64 64 64 65 65 65
MSLP
1011.47 1011.68 1011.82 1011.85 1012.30 1011.82 1011.44 1010.66 1009.84 1009.72 1009.72 1009.83 1009.90 1010.26 1011.01 1011.67 1012.06 1012.97 1012.51 1012.60 1012.53 1012.85 1013.05 1013.45 1013.80 1014.11 1014.55 1014.87 1014.96 1015.14 1015.31 1015.41 1015.46 1015.60 1015.77 1015.92 1015.98 1016.15 1016.39 1016.41 1016.53 1016.66 1016.81 1016.77 1017.03 1017.24 1017.31 1017.37 1017.62
1011.63 1011.98 1012.05 1011.91 1011.97 1011.99 1011.36 1010.49 1010.07 1009.81 1009.77 1009.70 1009.88 1010.40 1010.99 1011.72 1012.01 1012.36 1012.57 1012.60 1012.56 1012.78 1013.26 1013.58 1013.89 1014.18 1014.52 1014.85 1015.12 1015.19 1015.27 1015.46 1015.64 1015.84 1015.97 1016.08 1016.14 1016.26 1016.39 1016.54 1016.70 1016.78 1016.95 1017.16 1017.17 1017.33 1017.41 1017.55 1017.71
1011.76 1011.90 1012.15 1012.02 1011.70 1011.56 1011.00 1010.37 1009.95 1009.71 1009.55 1009.46 1009.95 1010.41 1011.04 1011.86 1012.19 1012.15 1012.23 1012.52 1012.69 1013.14 1013.35 1013.63 1013.92 1014.34 1014.67 1014.94 1015.20 1015.32 1015.30 1015.39 1015.61 1015.86 1016.09 1016.19 1016.33 1016.42 1016.39 1016.56 1016.69 1016.86 1017.06 1017.15 1017.17 1017.29 1017.48 1017.75 1017.91
1011.83 1012.21 1012.24 1011.97 1011.26 1010.63 1010.21 1010.01 1009.78 1009.69 1009.64 1009.72 1010.21 1010.98 1011.43 1011.60 1012.06 1012.23 1012.63 1012.88 1013.12 1013.47 1013.51 1013.68 1013.90 1014.30 1014.69 1015.00 1015.19 1015.44 1015.55 1015.53 1015.68 1015.92 1016.10 1016.23 1016.26 1016.45 1016.53 1016.63 1016.75 1016.89 1017.04 1017.23 1017.29 1017.43 1017.57 1017.83 1018.06
1012.14 1012.27 1011.95 1011.50 1010.77 1010.14 1009.87 1009.74 1009.76 1009.76 1009.94 1010.20 1010.41 1011.37 1011.78 1012.01 1011.99 1012.57 1012.87 1013.16 1013.44 1013.73 1013.63 1013.70 1013.98 1014.40 1014.71 1014.97 1015.19 1015.42 1015.64 1015.62 1015.79 1016.01 1016.20 1016.32 1016.32 1016.46 1016.56 1016.73 1016.90 1016.98 1017.09 1017.23 1017.33 1017.50 1017.71 1017.90 1018.19
1012.22 1012.20 1011.81 1011.33 1010.49 1009.93 1009.56 1009.36 1009.62 1009.74 1010.04 1010.36 1010.84 1011.47 1012.28 1012.33 1012.43 1012.77 1013.13 1013.38 1013.51 1013.91 1013.86 1014.02 1014.18 1014.42 1014.74 1015.02 1015.23 1015.40 1015.54 1015.62 1015.76 1015.98 1016.14 1016.38 1016.49 1016.53 1016.60 1016.64 1016.82 1017.00 1017.16 1017.26 1017.35 1017.55 1017.73 1018.02 1018.20
1011.80 1011.64 1011.11 1010.32 1009.88 1009.58 1009.15 1009.11 1009.38 1009.70 1009.84 1010.15 1010.62 1011.62 1012.51 1012.69 1012.90 1013.01 1013.26 1013.59 1013.81 1013.90 1014.05 1014.27 1014.43 1014.54 1014.72 1014.93 1015.26 1015.40 1015.53 1015.65 1015.77 1015.87 1016.03 1016.29 1016.47 1016.61 1016.63 1016.76 1016.89 1017.03 1017.22 1017.33 1017.44 1017.59 1017.82 1018.01 1018.14
1010.74 1010.65 1010.23 1009.46 1009.32 1008.95 1008.62 1008.93 1009.15 1009.50 1009.68 1009.72 1010.31 1011.30 1012.19 1012.39 1012.61 1013.15 1013.40 1013.76 1014.02 1014.26 1014.23 1014.42 1014.70 1014.83 1014.88 1014.93 1015.15 1015.40 1015.56 1015.71 1015.81 1015.96 1016.10 1016.25 1016.39 1016.53 1016.68 1016.87 1016.94 1017.08 1017.21 1017.41 1017.45 1017.64 1017.76 1018.04 1018.15
1010.10 1010.27 1009.83 1008.99 1008.76 1008.41 1008.57 1008.91 1009.14 1009.14 1009.68 1010.00 1010.35 1010.75 1011.03 1012.02 1012.83 1013.19 1013.65 1013.85 1014.09 1014.21 1014.44 1014.46 1014.62 1014.83 1014.91 1015.06 1015.19 1015.32 1015.51 1015.63 1015.79 1015.94 1016.03 1016.16 1016.41 1016.64 1016.73 1016.86 1016.94 1016.92 1017.11 1017.30 1017.41 1017.53 1017.65 1017.84 1017.94
1009.70 1009.88 1008.89 1007.77 1007.75 1008.05 1008.29 1008.58 1008.93 1009.50 1009.94 1010.28 1010.63 1010.93 1011.22 1012.16 1012.86 1013.35 1013.52 1013.72 1013.94 1014.03 1014.05 1014.32 1014.40 1014.62 1014.84 1014.90 1015.15 1015.42 1015.59 1015.59 1015.82 1016.00 1016.13 1016.26 1016.51 1016.74 1016.79 1016.79 1016.84 1016.91 1017.02 1017.13 1017.33 1017.43 1017.46 1017.65 1018.02
1008.87 1008.69 1007.72 1006.97 1006.87 1006.98 1007.89 1008.37 1008.34 1009.29 1009.99 1009.92 1010.22 1010.93 1011.40 1012.07 1012.70 1013.09 1013.28 1013.33 1013.28 1013.63 1013.82 1013.84 1014.26 1014.43 1014.74 1014.84 1015.02 1015.27 1015.41 1015.56 1015.84 1016.06 1016.28 1016.44 1016.61 1016.69 1016.68 1016.83 1016.88 1016.91 1016.86 1017.08 1017.18 1017.34 1017.53 1017.67 1017.95
1008.38 1007.55 1007.11 1006.51 1006.55 1007.17 1007.35 1007.75 1008.00 1008.74 1008.72 1008.66 1009.85 1010.23 1011.16 1011.65 1011.99 1012.40 1012.89 1013.09 1013.48 1013.68 1013.52 1013.60 1013.77 1014.18 1014.44 1014.76 1014.98 1015.15 1015.46 1015.79 1016.15 1016.11 1016.16 1016.52 1016.69 1016.73 1016.74 1016.75 1016.70 1016.89 1016.91 1017.15 1017.41 1017.58 1017.77 1017.99 1018.09
1007.89 1007.22 1006.90 1005.72 1006.02 1006.64 1007.13 1007.38 1007.82 1008.14 1008.29 1008.75 1009.98 1010.57 1011.00 1011.44 1011.42 1011.66 1011.86 1012.55 1013.09 1013.25 1013.22 1013.28 1013.51 1013.73 1013.97 1014.43 1014.73 1014.99 1015.00 1015.05 1015.69 1015.87 1016.13 1016.32 1016.68 1016.62 1016.60 1016.68 1016.59 1016.66 1016.87 1017.06 1017.44 1017.67 1017.77 1017.95 1018.07
1007.13 1006.94 1006.56 1006.07 1005.98 1006.58 1007.09 1007.55 1007.79 1007.95 1008.24 1008.99 1009.90 1010.19 1010.41 1010.73 1010.95 1011.44 1011.85 1012.24 1012.54 1012.48 1012.71 1013.08 1013.22 1013.49 1013.71 1014.29 1014.51 1014.75 1014.97 1014.93 1014.93 1015.04 1015.41 1015.78 1016.20 1016.47 1016.55 1016.60 1016.65 1016.67 1016.84 1016.99 1017.26 1017.60 1017.79 1017.86 1018.00
1006.82 1007.24 1006.92 1006.56 1006.45 1006.86 1007.09 1007.79 1007.80 1007.86 1008.05 1008.95 1009.48 1009.67 1009.89 1010.12 1010.63 1010.67 1011.00 1011.53 1011.75 1011.72 1012.17 1012.63 1012.82 1013.08 1013.41 1013.96 1014.15 1014.38 1014.47 1014.73 1014.97 1015.10 1015.05 1015.28 1015.84 1016.01 1016.10 1016.30 1016.50 1016.66 1016.71 1016.98 1017.32 1017.50 1017.77 1017.96 1017.88
1007.26 1007.17 1007.27 1006.88 1006.77 1006.92 1007.36 1007.30 1007.81 1007.86 1008.23 1008.93 1009.30 1009.42 1009.67 1009.83 1009.93 1010.31 1010.53 1010.80 1011.22 1011.88 1012.06 1012.36 1012.73 1012.97 1013.19 1013.70 1013.96 1014.13 1014.02 1014.10 1014.36 1014.04 1014.53 1015.04 1015.54 1015.70 1015.78 1016.13 1016.31 1016.47 1016.65 1016.94 1017.31 1017.69 1017.78 1017.85 1017.78
1008.16 1008.01 1007.97 1007.40 1007.04 1007.27 1007.52 1007.39 1007.08 1007.51 1007.79 1008.61 1008.90 1008.92 1009.08 1009.39 1009.62 1009.65 1009.77 1010.33 1011.11 1011.53 1011.84 1012.19 1012.43 1013.05 1013.31 1013.73 1013.99 1014.06 1014.16 1014.04 1014.03 1014.20 1014.53 1014.70 1014.99 1015.21 1015.52 1015.63 1015.95 1016.31 1016.52 1016.85 1017.18 1017.49 1017.63 1017.60 1017.46
1008.70 1008.52 1008.20 1007.74 1007.17 1007.59 1007.86 1007.31 1007.16 1007.49 1007.69 1007.61 1008.22 1008.35 1008.70 1008.70 1008.53 1008.88 1009.68 1010.30 1010.80 1011.19 1011.98 1011.99 1012.27 1013.14 1013.45 1013.91 1014.37 1014.36 1014.30 1014.15 1014.06 1014.04 1014.28 1014.34 1014.65 1014.92 1015.23 1015.48 1015.76 1016.00 1016.46 1016.76 1016.97 1017.17 1017.26 1017.33 1017.16
1008.54 1008.48 1008.59 1007.85 1007.12 1007.52 1007.48 1007.32 1007.22 1007.45 1007.78 1007.65 1007.67 1007.87 1008.28 1008.03 1007.67 1008.54 1009.38 1010.20 1010.43 1010.88 1011.52 1011.43 1011.96 1012.79 1013.54 1014.10 1014.75 1015.14 1014.66 1014.31 1014.12 1013.98 1013.92 1014.18 1014.38 1014.69 1014.96 1015.24 1015.54 1015.74 1016.07 1016.33 1016.58 1016.77 1016.81 1016.94 1016.96
1008.45 1008.45 1007.81 1006.88 1006.76 1007.40 1007.48 1007.32 1007.49 1007.51 1006.91 1006.56 1007.05 1007.57 1007.64 1008.07 1008.20 1008.34 1009.01 1009.38 1009.42 1010.47 1010.59 1011.16 1011.19 1011.75 1012.59 1013.22 1013.63 1013.91 1014.47 1014.47 1014.20 1013.97 1013.96 1013.91 1014.15 1014.31 1014.59 1014.96 1015.24 1015.53 1015.88 1016.02 1016.06 1016.41 1016.53 1016.57 1016.62
1008.32 1008.35 1007.58 1007.61 1007.39 1007.27 1007.59 1007.74 1007.38 1006.99 1006.67 1006.71 1006.77 1007.04 1007.50 1007.59 1007.92 1008.40 1008.77 1008.64 1009.23 1009.82 1010.19 1011.11 1011.48 1012.37 1012.79 1012.83 1013.25 1013.66 1014.07 1014.41 1014.39 1014.34 1014.07 1013.93 1013.86 1014.05 1014.25 1014.48 1014.78 1015.14 1015.29 1015.56 1015.66 1015.96 1016.12 1016.23 1016.24
1008.14 1007.13 1007.20 1007.53 1007.95 1008.07 1008.07 1008.57 1008.01 1007.35 1006.86 1006.50 1006.20 1006.32 1006.62 1006.84 1007.51 1008.11 1008.36 1008.81 1009.00 1009.73 1011.66 1013.53 1013.67 1013.95 1014.30 1013.27 1013.36 1013.43 1013.52 1014.23 1014.17 1014.09 1013.88 1013.73 1013.62 1013.87 1014.01 1014.24 1014.57 1014.88 1015.11 1015.24 1015.37 1015.56 1015.75 1015.95 1016.00
1006.97 1006.92 1007.46 1007.91 1008.59 1008.88 1008.79 1009.17 1007.70 1007.44 1006.65 1005.82 1005.60 1005.59 1005.73 1006.07 1007.02 1007.63 1008.29 1008.65 1008.96 1010.59 1011.81 1011.37 1012.62 1013.11 1012.50 1013.62 1012.94 1013.32 1013.42 1013.81 1013.90 1013.86 1013.94 1013.93 1013.73 1013.73 1013.90 1014.17 1014.51 1014.79 1014.99 1015.12 1015.09 1015.24 1015.47 1015.62 1015.68
1006.24 1007.17 1008.16 1009.20 1009.79 1010.43 1009.42 1009.39 1008.73 1007.66 1006.73 1005.89 1005.39 1005.63 1006.11 1007.27 1007.95 1008.28 1008.39 1008.74 1009.49 1011.02 1011.28 1011.68 1011.58 1011.31 1011.61 1013.00 1013.49 1013.16 1013.11 1013.63 1013.92 1013.83 1014.04 1014.32 1014.04 1014.16 1014.24 1014.25 1014.53 1014.69 1014.90 1014.91 1014.91 1015.07 1015.15 1015.28 1015.28
1006.66 1008.03 1009.48 1010.85 1011.49 1011.18 1010.06 1009.76 1008.21 1006.73 1006.39 1006.53 1005.90 1005.89 1006.08 1006.96 1007.73 1008.21 1008.31 1008.86 1009.34 1010.82 1011.24 1011.70 1010.54 1012.40 1012.16 1012.80 1013.32 1012.98 1013.20 1013.10 1013.43 1013.57 1013.68 1014.05 1013.98 1014.25 1014.52 1014.68 1014.77 1014.81 1014.73 1014.76 1014.75 1014.94 1015.01 1015.02 1015.14
1006.57 1007.73 1009.43 1011.16 1012.29 1011.39 1010.35 1009.46 1007.32 1006.45 1006.45 1006.41 1005.87 1006.31 1006.94 1007.15 1007.59 1007.71 1007.75 1007.33 1006.95 1007.53 1009.10 1010.65 1011.49 1010.77 1011.83 1012.70 1012.68 1012.71 1013.16 1013.23 1013.47 1013.62 1013.59 1013.73 1013.93 1014.15 1014.45 1014.66 1014.83 1014.77 1014.66 1014.69 1014.75 1014.96 1015.05 1015.06 1014.97
1006.65 1007.78 1008.77 1010.71 1012.22 1011.91 1010.71 1009.27 1007.44 1006.80 1006.65 1007.30 1007.33 1007.53 1007.78 1007.49 1007.59 1007.58 1007.60 1007.17 1007.16 1009.18 1009.52 1009.05 1011.28 1011.52 1011.82 1012.55 1012.26 1012.69 1013.36 1013.44 1013.32 1013.33 1013.36 1013.50 1013.83 1014.24 1014.43 1014.71 1014.86 1014.82 1014.76 1014.85 1015.02 1015.21 1015.35 1015.32 1015.05
1005.63 1007.07 1008.92 1010.43 1011.88 1012.16 1011.10 1009.86 1008.70 1007.15 1007.28 1008.38 1008.21 1008.24 1008.21 1007.80 1007.21 1006.94 1006.47 1007.90 1010.32 1009.70 1009.15 1009.17 1010.86 1011.21 1011.67 1012.04 1012.61 1012.71 1013.55 1013.61 1013.50 1013.39 1013.67 1014.01 1014.15 1014.44 1014.61 1014.81 1015.00 1015.06 1015.21 1015.17 1015.35 1015.50 1015.48 1015.54 1015.43
1006.33 1007.32 1008.92 1010.36 1011.10 1011.56 1011.12 1009.83 1007.39 1007.31 1007.96 1008.68 1008.62 1008.45 1008.03 1007.85 1008.01 1007.72 1008.03 1009.16 1009.47 1009.47 1009.21 1009.68 1010.94 1010.97 1011.89 1012.38 1012.93 1012.97 1013.50 1013.57 1013.57 1013.70 1013.68 1013.90 1014.49 1014.82 1014.86 1015.15 1015.25 1015.38 1015.48 1015.45 1015.53 1015.71 1015.71 1015.67 1015.65
1005.65 1006.63 1007.81 1010.03 1011.26 1011.35 1010.67 1008.68 1006.97 1007.59 1008.25 1008.72 1008.58 1008.12 1007.85 1007.86 1008.03 1008.17 1008.66 1008.55 1008.48 1008.60 1008.88 1010.01 1012.16 1011.48 1012.07 1011.99 1012.58 1012.93 1013.32 1013.53 1013.67 1013.65 1013.82 1014.26 1014.76 1015.03 1015.15 1015.33 1015.49 1015.66 1015.70 1015.76 1015.73 1015.85 1015.79 1015.66 1015.75
Wind_Speed
8 3 1 2 3 4 4 6 2 4 3 2 3 5 5 3 1 3 1 2 9 9 8 10 13 14 15 15 16 16 16 15 15 14 13 13 12 11 11 11 9 9 10 11 11 9 10 12 10
7 5 0 3 5 4 4 6 4 3 3 7 7 4 4 3 3 6 5 5 8 8 6 7 11 12 14 15 15 15 16 15 15 14 13 12 10 10 10 10 11 9 11 11 11 11 10 11 10
9 4 1 2 2 2 2 2 2 3 5 2 4 5 2 2 3 8 4 10 8 6 6 7 13 12 13 14 13 13 14 14 14 14 13 13 11 9 9 7 9 9 8 10 11 11 10 11 9
4 1 1 2 3 1 4 5 2 4 4 6 5 6 4 3 5 5 10 10 9 5 6 9 14 13 13 13 13 12 13 12 12 12 12 11 11 10 9 8 7 7 9 8 8 10 10 11 9
3 2 3 3 4 3 4 3 4 3 2 3 2 4 4 2 7 11 10 9 8 5 5 7 12 12 12 13 13 11 11 12 12 10 10 9 9 9 8 8 8 6 6 8 9 9 10 10 9
2 2 4 3 2 3 2 3 3 3 4 4 5 4 1 5 8 9 7 6 6 5 4 4 10 11 12 12 12 12 12 12 12 12 10 9 8 7 7 8 8 8 7 7 9 10 9 10 10
2 2 3 5 5 4 5 5 4 5 5 4 5 4 1 3 5 7 7 6 6 4 4 3 4 8 12 12 12 13 13 12 12 12 10 10 9 8 6 7 8 7 7 6 6 9 10 10 10
3 2 3 1 2 4 7 6 7 5 3 5 6 5 4 4 10 7 7 6 5 4 4 4 3 3 4 5 12 12 13 13 12 11 10 9 9 8 8 6 5 7 6 7 7 7 8 9 8
3 4 2 2 4 3 5 4 5 1 8 1 5 6 7 14 10 8 6 5 4 5 4 4 4 4 5 4 5 10 13 13 13 11 12 9 3 4 6 6 7 7 7 7 7 7 7 10 9
4 3 6 6 5 4 3 5 8 4 3 1 4 9 16 15 11 10 8 7 6 7 7 6 5 5 4 4 4 4 4 3 3 3 4 3 4 3 5 6 9 8 8 8 7 6 6 6 2
3 5 4 6 5 11 7 4 5 9 4 7 10 15 16 15 11 10 10 8 12 8 6 8 6 5 5 5 3 2 3 2 2 4 4 3 2 3 3 2 2 2 7 2 4 2 1 2 2
1 6 5 5 5 3 8 7 7 9 6 8 13 18 15 15 15 13 11 9 8 8 10 7 8 7 6 3 3 3 0 1 1 3 4 3 2 4 3 3 3 3 2 4 2 1 1 1 2
4 5 6 14 9 6 7 3 4 9 2 11 12 15 15 14 15 13 13 8 7 9 10 9 8 8 7 6 4 3 4 5 5 3 3 1 3 4 3 3 3 3 3 3 3 2 2 3 3
7 5 6 8 6 4 7 1 5 3 10 13 15 16 15 16 17 12 9 9 11 11 11 9 9 8 6 6 5 3 2 2 4 6 6 7 4 4 3 3 3 3 3 3 3 3 3 3 3
3 5 4 5 2 1 5 6 5 5 13 16 16 16 15 16 13 16 15 14 13 12 9 11 9 8 8 7 5 4 4 4 4 4 4 7 7 5 5 3 3 4 3 4 3 2 2 3 3
3 4 6 4 4 2 7 12 5 10 14 14 15 14 14 14 14 14 12 13 11 7 10 8 7 8 7 6 4 3 3 2 3 4 5 5 7 7 5 5 4 3 3 3 2 2 3 4 4
7 1 3 6 6 2 5 9 4 12 15 12 14 14 14 13 9 12 12 13 10 11 7 8 8 7 6 5 3 3 3 2 2 3 3 5 5 6 5 4 3 4 3 4 3 4 4 4 4
3 3 4 5 5 3 4 13 4 8 13 18 15 14 13 13 17 13 8 9 8 8 5 6 5 6 5 4 3 1 2 1 2 3 3 5 4 4 4 3 4 4 3 3 3 5 4 4 4
2 3 6 6 7 6 12 15 13 10 11 13 15 14 11 16 13 7 7 8 7 7 7 9 10 8 6 3 2 2 2 2 1 2 4 4 4 5 5 3 3 3 4 5 5 4 5 4 4
4 4 11 11 8 7 4 16 4 8 15 20 16 14 14 8 7 7 8 10 11 9 10 8 10 11 9 5 3 3 2 2 1 1 3 4 4 5 5 5 4 5 4 6 5 5 3 2 4
4 5 8 10 3 1 2 8 3 7 9 8 10 9 9 10 12 8 9 11 11 12 12 10 8 6 5 6 3 2 3 2 1 2 2 4 5 5 5 5 3 4 4 4 3 4 5 3 3
4 11 12 7 3 4 2 7 7 5 9 9 10 12 14 12 7 6 8 9 12 11 8 19 17 14 8 3 3 3 4 3 3 2 2 2 4 4 4 4 4 3 2 3 2 3 3 3 3
12 5 6 1 5 3 1 5 10 2 6 9 12 11 13 14 11 10 5 5 5 11 17 26 11 25 9 8 4 4 4 2 2 2 3 2 2 4 6 5 4 2 1 2 3 2 3 3 2
2 4 8 6 4 2 3 7 8 4 5 10 2 7 6 5 6 8 8 8 7 11 18 15 18 17 15 8 4 6 6 5 3 3 2 1 2 2 3 4 3 2 2 2 2 2 2 2 2
5 7 4 5 5 7 2 3 11 6 6 7 12 3 8 12 10 10 15 12 10 3 13 12 12 12 13 12 6 5 5 6 6 4 4 4 3 2 3 2 2 1 2 1 1 1 1 2 2
3 7 8 7 5 6 3 5 8 6 5 6 4 4 10 12 10 8 10 11 13 15 14 10 9 5 8 6 6 5 5 2 2 3 4 4 3 3 4 3 2 2 1 1 1 0 1 0 1
3 3 4 9 3 3 4 8 9 5 5 8 9 12 11 10 9 9 4 5 5 11 4 15 9 7 7 6 6 5 2 4 4 3 3 4 4 3 5 4 2 1 3 4 4 3 3 2 2
4 6 3 3 4 4 5 5 8 6 2 8 6 6 6 8 8 9 9 6 10 6 5 6 8 7 8 6 4 5 4 3 3 4 5 4 3 3 4 3 3 4 4 5 4 2 3 3 2
2 1 6 6 4 7 3 8 9 7 3 7 5 6 8 8 7 5 4 8 8 5 9 9 3 9 7 7 5 6 5 4 5 5 4 5 4 3 3 3 4 4 4 3 3 3 3 3 3
3 5 6 7 5 2 5 9 2 4 4 6 9 9 8 4 4 5 6 7 7 15 13 13 6 9 9 9 7 6 6 4 4 5 5 4 4 3 4 4 4 4 4 4 4 4 3 4 4
Wind_Direction
155 137 357 315 49 57 356 345 337 71 57 19 24 87 100 46 86 210 99 151 130 128 140 143 146 141 139 140 138 136 131 129 128 129 133 138 146 140 146 141 139 134 136 130 128 118 114 110 123
134 141 278 301 71 50 317 338 43 11 113 132 93 84 68 79 74 126 129 143 129 132 133 137 145 142 146 147 143 142 139 137 138 139 139 140 139 139 145 148 150 147 142 137 132 129 126 124 139
147 167 298 23 91 118 169 333 99 120 169 133 103 64 41 93 109 155 152 140 126 126 132 152 148 150 153 152 148 149 146 146 146 147 149 147 139 139 127 135 134 143 144 140 140 130 127 133 140
147 198 231 72 45 76 170 170 233 94 42 51 97 69 69 263 148 153 143 139 129 135 137 161 157 157 158 157 156 157 153 154 152 156 155 154 150 146 137 130 132 141 148 147 141 134 142 137 139
38 20 42 59 356 47 48 158 159 124 62 57 61 119 87 50 103 131 141 140 138 136 143 150 161 163 164 164 161 164 160 159 162 165 162 161 156 159 161 157 158 149 154 151 147 149 148 140 136
105 147 54 68 86 73 80 161 144 81 79 118 75 83 60 117 126 143 135 122 117 125 127 153 163 168 169 169 167 169 171 170 170 172 172 173 172 170 177 165 170 167 168 164 161 156 154 153 150
182 97 163 169 134 161 186 181 155 139 142 101 143 88 24 134 122 134 117 113 115 128 139 152 155 177 174 175 176 178 180 182 182 182 182 180 183 181 187 174 166 172 179 189 184 169 165 163 160
192 113 0 318 156 198 188 159 149 153 176 108 148 165 197 182 144 118 110 119 124 147 153 164 164 176 174 177 184 186 188 190 190 191 192 196 193 190 188 169 166 172 177 197 203 196 175 166 163
120 54 295 246 177 240 164 138 157 139 140 147 179 149 155 135 126 119 132 135 149 171 187 180 182 189 191 188 205 193 194 197 200 195 200 196 183 208 203 179 193 186 187 193 205 214 192 182 176
118 93 234 207 165 161 211 151 152 117 140 12 82 90 125 140 155 165 170 185 186 196 197 187 193 199 198 193 198 194 215 197 191 198 227 164 181 193 209 211 209 205 192 193 200 209 214 197 165
197 183 222 268 201 154 175 170 153 125 222 200 183 149 153 156 174 180 195 199 203 200 202 193 184 194 197 210 184 197 196 198 192 208 201 210 172 233 222 212 235 213 209 197 189 179 160 151 170
225 251 231 240 208 182 165 147 149 163 224 168 171 160 158 171 181 188 201 201 192 194 211 199 182 189 204 208 208 193 195 263 272 229 215 188 199 209 230 222 219 201 198 167 171 169 165 220 230
192 262 230 253 209 169 126 186 185 203 137 124 142 161 176 187 192 196 201 197 193 203 210 211 185 193 200 205 208 206 187 159 206 218 223 245 231 222 224 210 203 176 172 166 169 189 192 218 231
200 242 266 287 242 190 168 230 149 199 148 144 162 182 186 193 194 195 201 202 200 203 205 199 206 193 176 208 201 225 198 217 199 205 206 172 209 216 204 209 192 185 177 172 168 182 204 223 246
205 185 282 349 130 121 100 288 215 172 162 167 182 193 193 202 195 200 201 206 204 211 192 194 197 181 180 199 206 206 215 185 197 214 210 176 183 209 179 203 176 198 174 163 169 199 244 255 247
2 47 14 339 119 201 129 264 148 169 159 183 194 200 207 207 207 211 203 212 206 208 194 180 190 187 172 175 194 214 240 217 207 192 179 179 182 208 193 194 183 195 174 172 176 190 224 242 244
6 267 337 319 218 159 175 254 219 181 170 188 206 207 210 220 221 213 202 198 201 211 191 175 171 174 166 158 164 197 241 202 177 174 179 195 183 186 178 189 183 175 166 180 189 215 213 234 247
289 349 313 256 217 185 247 265 301 200 184 200 203 209 207 212 227 217 202 186 187 200 202 154 151 142 146 116 114 208 191 197 172 161 179 170 173 176 175 176 172 169 167 199 205 216 218 231 235
283 221 203 244 267 149 225 246 236 222 224 212 212 208 210 218 218 211 181 150 167 164 168 175 149 155 147 139 148 288 236 221 222 186 176 182 182 188 188 182 184 179 198 208 201 205 219 228 232
231 284 278 299 217 157 213 251 261 208 229 217 212 213 216 216 228 198 165 167 179 170 185 176 169 171 170 162 186 144 185 232 237 180 205 183 187 187 187 187 192 201 213 229 192 199 184 218 182
236 208 259 231 116 247 356 307 248 263 250 237 232 216 217 210 206 201 178 184 168 182 182 181 181 157 164 169 124 103 63 40 34 240 218 210 190 186 192 195 201 197 191 217 185 186 197 203 201
249 215 236 234 88 236 110 277 245 251 266 244 233 210 197 200 184 197 186 168 194 190 90 43 26 358 323 230 163 193 157 176 219 194 199 181 177 179 174 181 184 186 180 192 202 184 206 185 206
233 167 222 106 133 51 339 84 272 293 271 252 239 218 197 196 186 206 198 166 181 105 116 100 33 283 238 256 177 198 158 210 180 168 163 141 118 139 146 139 145 159 192 197 191 187 197 192 201
191 73 47 54 83 29 225 137 283 267 244 303 300 233 188 116 80 82 89 104 97 119 124 130 166 242 252 256 224 185 167 192 181 168 157 207 114 90 101 108 120 158 215 223 198 187 181 198 212
81 64 350 4 13 220 48 67 233 266 271 250 283 231 166 128 110 111 103 91 94 125 162 162 175 221 232 212 203 178 198 197 200 196 166 169 157 146 141 147 153 175 281 239 210 196 190 194 215
156 149 153 194 193 245 55 231 252 246 353 348 333 60 90 118 121 134 163 167 154 157 175 181 202 176 174 171 178 166 206 162 167 217 190 161 161 149 147 139 146 176 208 319 22 95 105 297 285
181 175 175 104 8 67 242 292 311 268 20 33 44 81 109 129 144 145 168 109 223 359 310 137 198 154 144 164 147 138 145 166 153 159 162 150 129 140 143 151 167 343 63 64 71 57 39 1 357
158 152 75 13 159 231 291 277 244 270 245 62 48 102 157 174 188 194 172 125 69 59 71 116 142 147 143 137 126 129 160 162 160 138 107 86 95 131 156 151 143 77 65 72 78 63 34 30 360
61 241 57 119 119 160 181 264 216 229 104 135 165 211 208 195 193 197 106 80 119 81 45 20 147 132 146 148 149 146 157 140 130 126 124 125 129 148 132 143 107 100 88 74 88 89 72 71 29
172 196 136 126 228 120 146 272 275 203 203 174 196 220 241 236 191 191 137 151 137 111 50 287 255 147 172 150 151 150 134 124 109 117 119 125 131 133 135 106 92 88 77 73 89 96 74 69 54